SCP
0 0 0 0 0 0 0 0 0 0 0 0 0 0 0 0 0 0 0 0 0 0 0 0 0 0 0 0 0 0 0 0 0 0 0 0 0 0 0 0 0 0 0 0
0 0 0 -0 0 -0 -0 0 0 0 0 0 0 0 0 0 0 0 0 0 0 0 0 0 0 0 0 0 0 0 0 0 0 0 0 0 0 0 0 0 0 0 0 0
0 0 0 0 -0 0 0 0 0 0 0 0 0 0 0 0 0 0 0 0 0 0 0 0 0 0 0 0 0 0 0 0 0 0 0 0 0 0 0 0 0 0 0 0
0 0 0 0 0 0 0 0 0 0 0 0 0 -0 -0 0 0 0 0 0 0 0 0 0 0 0 0 0 0 0 0 0 0 0 0 0 0 0 0 0 0 0 0 0
0 0 0 0 0 0 0 0 0 0 0 -0 -0 -0 -0 -0 -0 -0 0 0 0 0 0 0 0 0 0 0 0 0 0 0 0 0 0 0 0 0 0 0 0 0 0 0
0 0 0 0 0 0 -0 0 0 0 -0 -0 -0 -0 -0 -0 0 0 0 0 0 0 0 0 0 0 0 0 0 0 0 0 0 0 0 0 0 0 0 0 0 0 0 0
0 0 0 0 0 -0 -0 -0 0 0 0 -0 0 0 -0 -0 -0 0 0 0 0 0 0 0 0 0 0 0 0 0 0 0 0 0 0 0 0 0 0 0 0 0 0 0
0 0 -0 0 0 -0 0 0 -0 -0 -0 -0 -0 -0 -0 -0 -0 -0 -0 -0 0 0 0 0 0 0 0 0 0 0 0 0 0 0 0 0 0 0 0 0 0 0 0 0
0 0 0 0 -0 0 -0 -0 -0 -0 -0 -0 -0 -0 -0 -0 -0 -0 0 0 0 0 0 0 0 0 -0 0 0 0 0 0 0 0 0 0 0 0 0 0 0 0 0 -0
0 0 -0 -0 -0 -0 -0 0 0 0 -0 -0 0 0 0 -0 0 0 0 0 0 0 -0 -0 0 0 0 0 0 0 0 0 0 0 0 0 0 0 0 0 0 0 -0 -0
0 -0 -0 0 0 0 0 0 0 -0 -0 -0 -0 -0 0 0 0 0 0 0 0 0 0 0 0 0 0 0 0 0 0 0 0 0 0 0 0 0 0 0 -0 -0 -0 -0
0 0 0 0 0 0 0 0 -0 0 -0 0 0 0 0 0 0 0 0 -0 -0 -0 0 0 0 0 0 0 0 0 0 0 0 0 0 0 0 0 0 -0 -0 -0 -0 -0
0 0 0 0 0 0 0 0 0 -0 -0 -0 0 0 0 0 0 0 0 -0 -0 -0 -0 -0 -0 0 0 0 0 0 0 0 0 0 0 0 0 0 0 0 0 0 0 0
0 0 0 0 0 0 0 0 0 -0 -0 0 0 0 0 0 0 0 0 0 0 0 0 0 0 0 0 -0 -0 -0 0 0 0 0 0 0 0 0 0 0 0 -0 -0 -0
0 0 0 0 0 0 0 0 0 -0 -0 -0 -0 0 0 0 0 0 0 0 0 0 0 0 0 0 0 -0 -0 -0 -0 0 0 -0 0 0 0 0 0 0 -0 -0 -0 -0
0 0 0 0 0 0 -0 -0 0 -0 0 -0 -0 0 0 0 0 0 0 0 0 0 0 0 0 0 -0 -0 0 0 0 0 0 0 -0 0 0 0 -0 0 -0 -0 -0 -0
0 0 0 0 0 0 -0 -0 0 0 0 -0 -0 0 0 0 0 0 0 0 0 0 0 0 0 0 0 0 0 0 0 0 0 0 0 0 0 0 0 -0 -0 -0 -0 -0
0 0 0 0 0 0 0 -0 0 -0 0 -0 -0 -0 0 -0 0 0 0 0 0 0 0 0 0 0 0 0 0 0 0 0 0 0 0 0 0 0 0 0 0 0 0 0
0 0 0 0 0 0 0 -0 -0 0 0 -0 0 -0 0 -0 0 0 0 0 0 0 0 0 0 0 0 0 0 0 0 0 0 0 0 0 0 0 0 0 0 0 0 0
0 0 0 0 0 0 0 0 -0 -0 0 -0 -0 -0 -0 0 0 0 0 0 0 0 0 0 0 0 0 0 0 0 0 0 0 0 0 0 0 0 0 0 0 0 0 0
0 0 -0 0 0 0 0 0 -0 -0 -0 -0 -0 -0 -0 -0 -0 0 0 0 0 0 0 -0 0 0 0 0 0 0 0 0 0 0 0 0 0 0 0 0 0 0 0 0
0 -0 0 -0 0 0 0 0 0 -0 -0 -0 -0 -0 -0 -0 -0 0 0 0 0 -0 0 0 0 0 0 0 0 0 0 0 0 0 0 0 0 0 0 0 0 0 0 0
-0 -0 -0 -0 0 0 -0 -0 0 -0 -0 -0 -0 -0 -0 -0 -0 -0 0 -0 -0 -0 0 0 -0 -0 -0 0 0 0 0 0 0 0 0 0 0 0 0 0 0 0 0 0
-0 -0 -0 -0 -0 0 -0 -0 -0 -0 -0 -0 -0 -0 -0 -0 -0 -0 -0 -0 -0 -0 -0 -0 -0 -0 -0 0 0 0 0 0 0 0 0 0 0 0 0 0 0 0 0 0
-0 -0 -0 -0 0 0 -0 -0 0 -0 -0 0 0 0 -0 -0 -0 -0 -0 -0 -0 -0 -0 -0 -0 -0 -0 -0 -0 0 0 0 0 0 0 0 0 0 0 0 0 0 0 0
-0 -0 -0 -0 -0 -0 -0 -0 -0 0 0 -0 0 0 0 -0 -0 -0 -0 -0 -0 -0 -0 -0 -0 -0 -0 -0 -0 -0 0 0 0 0 0 0 0 0 0 0 0 0 0 0
-0 -0 -0 -0 -0 -0 -0 -0 -0 -0 -0 -0 0 0 0 -0 -0 0 0 -0 0 -0 -0 -0 -0 -0 -0 -0 -0 0 0 0 0 0 0 0 0 0 0 0 0 0 0 0
Wind_Speed_500mb
12 17 24 26 28 26 19 14 13 23 18 5 10 12 16 30 19 38 33 34 45 38 72 56 53 31 34 50 51 58 56 57 61 64 67 64 53 50 50 57 59 65 66 69
8 24 22 25 27 24 28 20 28 20 24 10 22 27 28 42 44 42 37 29 33 37 40 40 40 42 43 38 37 40 46 51 55 61 67 67 71 68 64 63 55 62 69 74
9 11 26 9 15 13 12 14 5 5 5 6 10 19 25 36 51 52 47 41 27 26 32 36 35 38 44 45 45 49 52 54 55 58 62 63 65 69 75 77 76 70 72 74
8 10 5 9 8 14 17 11 10 7 15 17 29 46 51 55 58 51 44 34 47 54 64 73 77 75 70 68 68 67 68 68 67 68 72 79 79 81 87 94 89 87 74 70
1 3 15 5 12 14 20 28 6 21 26 30 41 52 57 26 31 46 67 77 84 83 83 88 98 100 96 90 87 83 86 83 76 72 75 77 75 79 77 80 87 82 66 60
3 4 7 6 18 25 19 13 18 27 26 36 52 31 31 46 68 75 71 75 83 89 96 94 94 89 82 81 84 91 92 90 85 78 81 83 83 82 84 83 76 80 65 60
6 7 10 16 19 33 2 12 42 38 51 60 35 42 91 74 90 93 99 105 104 100 93 94 88 85 90 92 96 94 90 88 82 81 82 83 81 81 72 71 67 75 73 57
4 4 13 22 6 6 9 39 47 60 60 66 72 80 75 105 105 101 100 94 99 99 97 98 89 81 80 87 90 84 86 85 80 82 88 89 87 83 75 76 72 62 70 61
8 10 5 24 31 17 49 54 63 68 72 76 86 81 100 105 107 108 100 96 91 91 90 93 91 88 92 97 92 89 84 84 85 86 83 80 79 72 66 65 75 61 64 56
10 3 14 51 32 52 59 62 79 81 77 76 99 99 108 110 109 100 106 104 95 89 90 93 91 90 88 83 76 67 70 73 73 72 69 67 65 74 69 68 62 53 54 62
9 16 43 13 53 64 76 80 76 76 72 92 107 112 103 99 103 105 102 105 96 93 93 95 92 86 82 87 79 77 71 67 66 66 64 62 63 68 64 65 63 62 60 61
7 35 22 48 69 72 75 82 66 65 101 111 101 98 105 105 104 98 100 102 102 101 93 96 87 80 72 77 75 76 68 70 65 63 60 57 57 55 55 53 55 60 57 58
17 47 43 57 59 66 78 70 52 90 107 103 110 97 99 95 97 97 92 87 84 66 68 69 75 65 53 63 69 66 71 65 60 62 64 62 57 54 54 53 53 58 64 68
13 36 34 45 64 76 73 56 80 87 92 100 92 95 84 85 86 80 78 77 55 55 44 27 29 36 42 57 58 56 61 55 55 54 61 57 52 52 48 46 46 52 56 61
38 44 46 56 64 69 75 78 65 100 105 104 103 94 98 95 85 78 64 57 50 47 45 41 37 37 46 57 56 52 51 47 46 48 47 49 49 49 52 45 42 34 32 43
49 48 48 56 63 68 75 75 73 100 105 108 109 106 96 85 75 72 57 54 61 54 43 30 33 42 52 59 54 47 38 33 24 27 42 48 44 43 51 57 42 32 35 40
44 51 54 57 61 67 70 70 70 92 96 105 105 101 98 97 89 91 77 58 59 52 38 35 25 30 34 34 32 28 21 21 22 31 28 35 48 62 49 24 36 33 58 67
36 41 43 50 58 61 69 72 77 83 90 109 98 101 102 103 96 92 81 77 54 38 27 27 19 21 18 18 14 14 24 30 30 48 54 52 47 39 49 67 63 76 66 74
46 45 45 52 55 54 61 71 78 82 79 107 100 96 88 95 91 88 84 89 86 80 65 28 20 17 27 24 23 18 20 32 50 51 45 41 44 73 84 90 97 93 87 80
47 45 44 60 58 51 55 63 71 79 86 100 106 112 108 106 95 88 80 85 86 75 77 74 53 44 51 42 40 44 45 60 70 69 42 67 83 89 92 88 83 77 70 67
44 45 42 59 64 49 53 59 67 80 83 96 95 101 93 99 91 86 85 88 83 79 59 58 52 56 52 54 49 50 51 52 58 69 76 80 82 81 79 75 72 69 68 69
42 41 42 52 57 53 54 59 64 70 76 87 96 105 105 103 95 85 78 83 78 65 63 54 44 37 35 35 43 46 46 47 50 54 63 67 69 69 68 69 70 65 62 59
44 39 42 49 54 48 52 54 58 64 69 80 88 98 101 93 91 93 89 78 70 60 49 42 36 33 38 34 35 37 36 40 46 48 58 61 60 62 65 66 68 66 61 64
43 44 55 59 51 51 56 61 53 58 60 72 82 81 95 102 100 87 74 67 60 53 50 39 37 36 32 35 33 29 28 31 37 44 54 58 60 58 58 59 61 63 68 65
39 39 53 61 70 63 48 55 48 55 60 65 76 74 80 83 90 90 81 70 61 49 49 39 37 41 39 38 32 30 27 23 27 39 52 55 54 55 57 59 65 58 55 52
36 41 46 54 62 66 44 53 53 52 55 61 65 72 70 75 78 84 88 78 70 54 50 44 35 32 35 42 37 29 26 22 23 35 48 53 55 55 54 58 58 55 55 54
33 38 43 49 52 61 61 46 55 54 49 52 56 62 65 68 70 76 81 85 78 65 53 44 35 29 26 26 33 33 30 27 25 35 44 50 54 56 54 55 56 56 55 53
Wind_Direction_500mb
257 273 282 276 269 265 206 214 193 261 258 344 315 318 311 337 316 254 238 244 239 255 269 279 273 270 249 238 241 238 239 238 235 238 248 250 257 266 266 270 268 267 273 279
265 271 281 300 296 275 263 257 244 264 275 29 336 346 352 340 335 330 322 293 283 268 260 252 253 252 249 244 245 243 233 232 232 236 244 249 260 266 271 272 268 263 269 275
274 306 306 310 334 5 20 54 320 259 283 326 311 318 313 308 305 296 292 288 277 280 289 289 279 273 267 262 257 249 247 249 251 251 252 254 256 260 267 268 273 269 265 271
275 340 279 193 323 338 343 44 46 351 337 335 318 307 299 290 281 285 287 278 288 286 281 283 287 282 277 277 273 269 266 265 267 266 266 266 264 262 263 268 269 263 261 261
150 228 284 129 9 353 338 312 33 339 324 318 314 304 292 298 300 289 290 285 284 285 284 282 279 279 280 277 267 262 264 267 268 264 263 262 260 264 266 265 263 250 251 255
24 231 264 8 342 319 300 272 357 336 330 324 326 306 294 302 300 294 285 281 282 282 282 275 268 266 264 258 253 252 258 264 269 269 262 256 260 264 268 259 260 248 253 250
236 252 277 10 334 323 41 299 326 320 310 306 296 288 292 299 299 292 291 287 284 280 275 271 267 261 258 257 253 253 255 256 257 253 251 254 256 260 258 253 253 245 247 252
1 288 283 8 359 356 293 318 312 307 300 297 292 295 289 297 296 294 290 285 282 276 270 268 268 259 254 251 251 249 248 249 250 246 246 249 252 249 249 248 250 246 246 255
190 234 306 339 337 308 329 316 313 313 308 307 299 303 303 300 298 294 290 287 279 271 265 263 260 252 250 249 249 249 248 245 244 244 243 241 240 244 241 244 244 242 240 251
8 327 331 322 326 324 321 316 314 311 309 310 308 306 302 299 300 297 294 290 283 274 265 259 254 247 242 239 239 241 237 237 242 238 234 233 233 234 240 242 238 240 238 245
258 290 323 303 319 324 321 313 310 317 315 317 312 306 304 302 301 298 294 293 287 275 267 261 256 245 239 238 238 229 227 231 236 236 237 238 239 240 244 243 240 240 239 245
271 310 300 298 310 315 314 315 322 327 325 319 316 311 309 308 306 303 303 308 303 295 276 268 253 246 233 224 217 214 228 224 230 228 233 230 238 242 242 240 239 241 246 248
282 303 307 303 311 323 320 326 334 331 325 321 322 318 318 317 322 319 320 317 312 319 309 267 242 232 223 215 209 211 213 220 223 226 231 233 237 238 238 241 237 237 242 244
322 324 319 328 316 326 332 330 327 333 326 328 326 331 333 330 335 339 344 355 356 10 38 85 174 190 189 196 196 197 203 214 220 226 229 234 233 232 237 237 239 245 247 246
327 330 326 325 330 336 335 332 338 337 336 339 342 345 345 346 349 351 5 25 23 35 56 87 117 140 155 165 174 191 201 208 212 215 221 222 226 232 234 240 242 227 222 212
327 336 335 337 335 337 339 343 343 340 341 344 345 347 348 351 357 10 28 44 39 45 51 78 118 138 150 161 170 177 186 195 225 213 214 214 216 214 221 188 190 200 225 215
335 335 336 334 335 338 340 343 345 342 343 349 348 350 356 3 15 24 31 43 53 53 62 73 92 123 140 149 159 167 182 212 223 227 208 216 185 166 172 182 215 196 179 212
342 336 347 337 337 341 347 347 349 345 350 351 355 359 8 11 9 18 31 37 66 60 70 86 110 123 147 156 176 176 155 154 141 134 144 145 144 146 149 147 154 176 168 149
356 357 356 349 350 357 357 353 357 354 351 358 2 3 7 16 22 28 35 34 36 38 50 85 86 101 115 113 135 137 132 133 131 145 142 141 137 138 139 138 142 146 151 155
348 356 352 353 5 9 4 9 8 4 359 3 8 12 15 20 23 28 32 33 31 30 48 67 97 85 105 113 124 137 135 131 131 134 148 146 137 139 143 145 147 148 150 153
354 357 354 354 5 14 16 16 13 9 4 7 11 13 13 21 29 28 30 28 27 49 73 77 88 93 113 128 134 141 137 143 139 138 144 142 144 146 146 146 147 150 152 154
356 359 357 358 4 11 16 15 17 17 12 10 12 18 23 25 26 32 30 26 23 44 71 88 91 95 109 117 121 128 131 135 142 148 147 148 148 146 146 149 149 151 155 156
10 16 12 5 359 6 14 15 22 23 21 20 15 18 23 25 26 25 21 27 25 31 59 95 109 112 113 107 108 112 120 130 134 140 148 149 149 151 153 154 154 156 158 159
22 18 15 16 17 10 15 15 20 26 28 25 23 22 22 22 27 27 25 28 30 30 52 77 105 113 115 110 113 116 123 134 140 149 157 156 154 153 156 159 160 161 158 161
22 16 14 17 17 13 18 16 20 20 23 27 23 26 26 27 26 23 24 27 35 29 47 62 101 115 120 121 126 129 127 134 144 149 155 157 153 152 152 156 154 150 156 159
30 23 19 18 19 18 18 22 23 21 17 19 25 25 27 27 25 24 25 25 32 33 39 44 56 75 102 126 130 133 131 127 142 158 162 164 161 159 159 160 162 163 164 163
32 25 23 21 17 14 17 19 23 24 24 18 18 24 25 27 26 25 25 26 26 29 34 35 41 58 76 105 133 145 151 148 155 161 165 162 158 155 156 160 161 162 162 161
Wind_Speed_850mb
12 17 24 26 28 26 19 14 13 23 18 5 10 12 16 30 19 38 33 34 45 38 72 56 53 31 34 50 51 58 56 57 61 64 67 64 53 50 50 57 59 65 66 69
8 24 22 25 27 24 28 20 28 20 24 10 22 27 28 42 44 42 37 29 33 37 40 40 40 42 43 38 37 40 46 51 55 61 67 67 71 68 64 63 55 62 69 74
9 11 26 9 15 13 12 14 5 5 5 6 10 19 25 36 51 52 47 41 27 26 32 36 35 38 44 45 45 49 52 54 55 58 62 63 65 69 75 77 76 70 72 74
8 10 5 9 8 14 17 11 10 7 15 17 29 46 51 55 58 51 44 34 47 54 64 73 77 75 70 68 68 67 68 68 67 68 72 79 79 81 87 94 89 87 74 70
1 3 15 5 12 14 20 28 6 21 26 30 41 52 57 26 31 46 67 77 84 83 83 88 98 100 96 90 87 83 86 83 76 72 75 77 75 79 77 80 87 82 66 60
3 4 7 6 18 25 19 13 18 27 26 36 52 31 31 46 68 75 71 75 83 89 96 94 94 89 82 81 84 91 92 90 85 78 81 83 83 82 84 83 76 80 65 60
6 7 10 16 19 33 2 12 42 38 51 60 35 42 91 74 90 93 99 105 104 100 93 94 88 85 90 92 96 94 90 88 82 81 82 83 81 81 72 71 67 75 73 57
4 4 13 22 6 6 9 39 47 60 60 66 72 80 75 105 105 101 100 94 99 99 97 98 89 81 80 87 90 84 86 85 80 82 88 89 87 83 75 76 72 62 70 61
8 10 5 24 31 17 49 54 63 68 72 76 86 81 100 105 107 108 100 96 91 91 90 93 91 88 92 97 92 89 84 84 85 86 83 80 79 72 66 65 75 61 64 56
10 3 14 51 32 52 59 62 79 81 77 76 99 99 108 110 109 100 106 104 95 89 90 93 91 90 88 83 76 67 70 73 73 72 69 67 65 74 69 68 62 53 54 62
9 16 43 13 53 64 76 80 76 76 72 92 107 112 103 99 103 105 102 105 96 93 93 95 92 86 82 87 79 77 71 67 66 66 64 62 63 68 64 65 63 62 60 61
7 35 22 48 69 72 75 82 66 65 101 111 101 98 105 105 104 98 100 102 102 101 93 96 87 80 72 77 75 76 68 70 65 63 60 57 57 55 55 53 55 60 57 58
17 47 43 57 59 66 78 70 52 90 107 103 110 97 99 95 97 97 92 87 84 66 68 69 75 65 53 63 69 66 71 65 60 62 64 62 57 54 54 53 53 58 64 68
13 36 34 45 64 76 73 56 80 87 92 100 92 95 84 85 86 80 78 77 55 55 44 27 29 36 42 57 58 56 61 55 55 54 61 57 52 52 48 46 46 52 56 61
38 44 46 56 64 69 75 78 65 100 105 104 103 94 98 95 85 78 64 57 50 47 45 41 37 37 46 57 56 52 51 47 46 48 47 49 49 49 52 45 42 34 32 43
49 48 48 56 63 68 75 75 73 100 105 108 109 106 96 85 75 72 57 54 61 54 43 30 33 42 52 59 54 47 38 33 24 27 42 48 44 43 51 57 42 32 35 40
44 51 54 57 61 67 70 70 70 92 96 105 105 101 98 97 89 91 77 58 59 52 38 35 25 30 34 34 32 28 21 21 22 31 28 35 48 62 49 24 36 33 58 67
36 41 43 50 58 61 69 72 77 83 90 109 98 101 102 103 96 92 81 77 54 38 27 27 19 21 18 18 14 14 24 30 30 48 54 52 47 39 49 67 63 76 66 74
46 45 45 52 55 54 61 71 78 82 79 107 100 96 88 95 91 88 84 89 86 80 65 28 20 17 27 24 23 18 20 32 50 51 45 41 44 73 84 90 97 93 87 80
47 45 44 60 58 51 55 63 71 79 86 100 106 112 108 106 95 88 80 85 86 75 77 74 53 44 51 42 40 44 45 60 70 69 42 67 83 89 92 88 83 77 70 67
44 45 42 59 64 49 53 59 67 80 83 96 95 101 93 99 91 86 85 88 83 79 59 58 52 56 52 54 49 50 51 52 58 69 76 80 82 81 79 75 72 69 68 69
42 41 42 52 57 53 54 59 64 70 76 87 96 105 105 103 95 85 78 83 78 65 63 54 44 37 35 35 43 46 46 47 50 54 63 67 69 69 68 69 70 65 62 59
44 39 42 49 54 48 52 54 58 64 69 80 88 98 101 93 91 93 89 78 70 60 49 42 36 33 38 34 35 37 36 40 46 48 58 61 60 62 65 66 68 66 61 64
43 44 55 59 51 51 56 61 53 58 60 72 82 81 95 102 100 87 74 67 60 53 50 39 37 36 32 35 33 29 28 31 37 44 54 58 60 58 58 59 61 63 68 65
39 39 53 61 70 63 48 55 48 55 60 65 76 74 80 83 90 90 81 70 61 49 49 39 37 41 39 38 32 30 27 23 27 39 52 55 54 55 57 59 65 58 55 52
36 41 46 54 62 66 44 53 53 52 55 61 65 72 70 75 78 84 88 78 70 54 50 44 35 32 35 42 37 29 26 22 23 35 48 53 55 55 54 58 58 55 55 54
33 38 43 49 52 61 61 46 55 54 49 52 56 62 65 68 70 76 81 85 78 65 53 44 35 29 26 26 33 33 30 27 25 35 44 50 54 56 54 55 56 56 55 53
Wind_Direction_850mb
257 273 282 276 269 265 206 214 193 261 258 344 315 318 311 337 316 254 238 244 239 255 269 279 273 270 249 238 241 238 239 238 235 238 248 250 257 266 266 270 268 267 273 279
265 271 281 300 296 275 263 257 244 264 275 29 336 346 352 340 335 330 322 293 283 268 260 252 253 252 249 244 245 243 233 232 232 236 244 249 260 266 271 272 268 263 269 275
274 306 306 310 334 5 20 54 320 259 283 326 311 318 313 308 305 296 292 288 277 280 289 289 279 273 267 262 257 249 247 249 251 251 252 254 256 260 267 268 273 269 265 271
275 340 279 193 323 338 343 44 46 351 337 335 318 307 299 290 281 285 287 278 288 286 281 283 287 282 277 277 273 269 266 265 267 266 266 266 264 262 263 268 269 263 261 261
150 228 284 129 9 353 338 312 33 339 324 318 314 304 292 298 300 289 290 285 284 285 284 282 279 279 280 277 267 262 264 267 268 264 263 262 260 264 266 265 263 250 251 255
24 231 264 8 342 319 300 272 357 336 330 324 326 306 294 302 300 294 285 281 282 282 282 275 268 266 264 258 253 252 258 264 269 269 262 256 260 264 268 259 260 248 253 250
236 252 277 10 334 323 41 299 326 320 310 306 296 288 292 299 299 292 291 287 284 280 275 271 267 261 258 257 253 253 255 256 257 253 251 254 256 260 258 253 253 245 247 252
1 288 283 8 359 356 293 318 312 307 300 297 292 295 289 297 296 294 290 285 282 276 270 268 268 259 254 251 251 249 248 249 250 246 246 249 252 249 249 248 250 246 246 255
190 234 306 339 337 308 329 316 313 313 308 307 299 303 303 300 298 294 290 287 279 271 265 263 260 252 250 249 249 249 248 245 244 244 243 241 240 244 241 244 244 242 240 251
8 327 331 322 326 324 321 316 314 311 309 310 308 306 302 299 300 297 294 290 283 274 265 259 254 247 242 239 239 241 237 237 242 238 234 233 233 234 240 242 238 240 238 245
258 290 323 303 319 324 321 313 310 317 315 317 312 306 304 302 301 298 294 293 287 275 267 261 256 245 239 238 238 229 227 231 236 236 237 238 239 240 244 243 240 240 239 245
271 310 300 298 310 315 314 315 322 327 325 319 316 311 309 308 306 303 303 308 303 295 276 268 253 246 233 224 217 214 228 224 230 228 233 230 238 242 242 240 239 241 246 248
282 303 307 303 311 323 320 326 334 331 325 321 322 318 318 317 322 319 320 317 312 319 309 267 242 232 223 215 209 211 213 220 223 226 231 233 237 238 238 241 237 237 242 244
322 324 319 328 316 326 332 330 327 333 326 328 326 331 333 330 335 339 344 355 356 10 38 85 174 190 189 196 196 197 203 214 220 226 229 234 233 232 237 237 239 245 247 246
327 330 326 325 330 336 335 332 338 337 336 339 342 345 345 346 349 351 5 25 23 35 56 87 117 140 155 165 174 191 201 208 212 215 221 222 226 232 234 240 242 227 222 212
327 336 335 337 335 337 339 343 343 340 341 344 345 347 348 351 357 10 28 44 39 45 51 78 118 138 150 161 170 177 186 195 225 213 214 214 216 214 221 188 190 200 225 215
335 335 336 334 335 338 340 343 345 342 343 349 348 350 356 3 15 24 31 43 53 53 62 73 92 123 140 149 159 167 182 212 223 227 208 216 185 166 172 182 215 196 179 212
342 336 347 337 337 341 347 347 349 345 350 351 355 359 8 11 9 18 31 37 66 60 70 86 110 123 147 156 176 176 155 154 141 134 144 145 144 146 149 147 154 176 168 149
356 357 356 349 350 357 357 353 357 354 351 358 2 3 7 16 22 28 35 34 36 38 50 85 86 101 115 113 135 137 132 133 131 145 142 141 137 138 139 138 142 146 151 155
348 356 352 353 5 9 4 9 8 4 359 3 8 12 15 20 23 28 32 33 31 30 48 67 97 85 105 113 124 137 135 131 131 134 148 146 137 139 143 145 147 148 150 153
354 357 354 354 5 14 16 16 13 9 4 7 11 13 13 21 29 28 30 28 27 49 73 77 88 93 113 128 134 141 137 143 139 138 144 142 144 146 146 146 147 150 152 154
356 359 357 358 4 11 16 15 17 17 12 10 12 18 23 25 26 32 30 26 23 44 71 88 91 95 109 117 121 128 131 135 142 148 147 148 148 146 146 149 149 151 155 156
10 16 12 5 359 6 14 15 22 23 21 20 15 18 23 25 26 25 21 27 25 31 59 95 109 112 113 107 108 112 120 130 134 140 148 149 149 151 153 154 154 156 158 159
22 18 15 16 17 10 15 15 20 26 28 25 23 22 22 22 27 27 25 28 30 30 52 77 105 113 115 110 113 116 123 134 140 149 157 156 154 153 156 159 160 161 158 161
22 16 14 17 17 13 18 16 20 20 23 27 23 26 26 27 26 23 24 27 35 29 47 62 101 115 120 121 126 129 127 134 144 149 155 157 153 152 152 156 154 150 156 159
30 23 19 18 19 18 18 22 23 21 17 19 25 25 27 27 25 24 25 25 32 33 39 44 56 75 102 126 130 133 131 127 142 158 162 164 161 159 159 160 162 163 164 163
32 25 23 21 17 14 17 19 23 24 24 18 18 24 25 27 26 25 25 26 26 29 34 35 41 58 76 105 133 145 151 148 155 161 165 162 158 155 156 160 161 162 162 161